Regional Weather Roundup
Issued by NWS New Orleans/Baton Rouge, LA

Home | Current Version | Previous Version | Text Only | Print | Product List | Glossary On
Versions: 1 2 3 4 5 6 7 8 9 10 11 12 13 14 15 16 17 18 19 20 21 22 23 24 25 26 27 28 29 30 31 32 33 34 35 36 37 38 39 40 41 42 43 44 45 46 47 48 49 50
104
ASUS44 KLIX 221312
RWRLIX
NEW ORLEANS REGIONAL WEATHER ROUNDUP
NATIONAL WEATHER SERVICE NEW ORLEANS LA
800 AM CDT FRI MAY 22 2015

NOTE: "FAIR" INDICATES FEW OR NO CLOUDS BELOW 12,000 FEET WITH NO
      SIGNIFICANT WEATHER AND/OR OBSTRUCTIONS TO VISIBILITY.
      SKY/WX - SKY CONDITION AND SIGNIFICANT WEATHER.
      TMP - AIR TEMPERATURE.     DP    - DEWPOINT TEMPERATURE.
      RH  - RELATIVE HUMIDITY.   PRES  - PRESSURE.
      HI  - HEAT INDEX.          WCI   - WIND CHILL INDEX.

*  THESE STATIONS ARE NOT NWS OR FAA STATIONS AND ARE NOT UNDER
   NWS QUALITY CONTROL.

LAZ038-040-048-061>063-065>067-069-221400-
SOUTHEAST LOUISIANA

CITY           SKY/WX    TMP DP  RH WIND       PRES   REMARKS
N.O. AUDUBON     N/A     70  65  85 MISG        N/A
N.O. INTL ARPT CLOUDY    68  62  81 NE16      30.17R
N.O. LAKEFRONT CLOUDY    70  63  78 N15       30.19R
SLIDELL        CLOUDY    63  58  83 N13       30.18R
BATON ROUGE    CLOUDY    64  60  87 NE6       30.18R
BOOTHVILLE     CLOUDY    73  69  87 NE13G21   30.14R
BELLE CHASSE   CLOUDY    67  63  87 NE12      30.16R
BOGALUSA*        N/A     61  54  77 NE7       30.23R
GALLIANO*      CLOUDY    72  68  86 N7        30.15S
NEW ROADS*     CLOUDY    63  59  88 N8        30.20R
GONZALES*      CLOUDY    66  64  95 NE6       30.16S
HAMMOND*       CLOUDY    63  55  77 NE7       30.20F
HOUMA*         NOT AVBL
PORT FOURCHON* CLOUDY    75  70  83 NE17G23   30.14R

$$

MSZ070-080>082-221400-
SOUTHERN MISSISSIPPI

CITY           SKY/WX    TMP DP  RH WIND       PRES   REMARKS
MCCOMB         MOSUNNY   58  52  80 NE6       30.21S
GULFPORT       CLOUDY    62  54  74 N13       30.18R
BILOXI         PTSUNNY   61  56  83 N8        30.17R
PASCAGOULA     MOSUNNY   63  56  78 N10       30.18S
STENNIS ARPT*  MOSUNNY   63  52  67 MISG      30.19R

$$

COASTAL OBSERVATIONS
LAKE AND NEARSHORE STATIONS

STATION/POSITION TIME  TEMP    WIND        PRES    WAVE
                       AIR SEA DIR/SP/G            HT/PER
                 (UTC) (F)     (DEG/KT/KT) (MB)    (FT/S)
PASCAGOULA       1200   62      20/ 11/ 16 1021.0
WAVELAND YACHT   1200   62 76   20/ 12/ 16 1021.4
GRAND ISLE       1200   74 83   50/ 13/ 19 1019.6
SOUTHWEST PASS   1200   77 74   30/ 17/ 19 1019.4
NEW CANAL        1200   68 81   40/ 15/ 17 1020.3
SHELL BEACH      1200   68 81   30/ 18/ 21 1020.4

OFFSHORE STATIONS

STATION/POSITION TIME  TEMP    WIND        PRES    WAVE
                       AIR SEA DIR/SP/G            HT/PER
                 (UTC) (F)     (DEG/KT/KT) (MB)    (FT/S)
64 S DAUPHIN ISL 1250   76 81   40/ 19/ 21 1020.2    4/ 5

$$




USA.gov is the U.S. government's official web portal to all federal, state and local government web resources and services.